GW5126 Weather Reports


time (UTC)temp
F
wind
direction
speed
knots
gust
knots
rain 1hr
in
rain 24hr
in
rain mn
in
humidity
%
barometer
mb
20260508072805 36 334 0.0 0.0 0.00 0.00 0.00 93 1014.4
20260508072306 36 334 0.0 0.0 0.00 0.00 0.00 93 1014.8
20260508071759 36 334 0.0 0.0 0.00 0.00 0.00 92 1014.6
20260508071257 36 334 0.0 0.0 0.00 0.00 0.00 92 1014.8
20260508070754 36 334 0.0 0.0 0.00 0.00 0.00 92 1014.8
20260508070253 36 334 0.0 0.0 0.00 0.00 0.00 92 1014.7
20260508065750 36 334 0.0 0.0 0.00 0.00 0.00 92 1014.8
20260508065248 36 334 0.0 0.0 0.00 0.00 0.00 92 1014.8
20260508064745 36 334 0.0 0.0 0.00 0.00 0.00 92 1014.9
20260508064243 37 334 0.0 0.0 0.00 0.00 0.00 92 1014.9
20260508063740 37 334 0.0 0.0 0.00 0.00 0.00 92 1014.6
20260508063238 37 334 0.0 0.0 0.00 0.00 0.00 92 1014.9
20260508062735 37 334 0.0 0.0 0.00 0.00 0.00 92 1014.6
20260508062233 37 334 0.0 0.0 0.00 0.00 0.00 92 1014.9
20260508061729 37 334 0.0 0.0 0.00 0.00 0.00 92 1014.9
20260508061227 37 334 0.0 0.0 0.00 0.00 0.00 92 1014.8
20260508060723 37 334 0.0 0.0 0.00 0.00 0.00 92 1015.0
20260508060221 37 334 0.0 0.0 0.00 0.00 0.00 91 1014.9
20260508055716 38 334 0.0 0.0 0.00 0.00 0.00 91 1014.6
20260508055213 38 334 0.0 0.0 0.00 0.00 0.00 91 1015.0
20260508054710 38 334 0.0 0.0 0.00 0.00 0.00 91 1015.1
20260508054208 38 334 0.0 0.0 0.00 0.00 0.00 91 1015.2
20260508053704 38 334 0.0 0.0 0.00 0.00 0.00 91 1015.2
20260508053202 38 334 0.0 0.0 0.00 0.00 0.00 91 1014.9
20260508052659 38 334 0.0 0.0 0.00 0.00 0.00 91 1015.1
20260508052156 38 334 0.0 0.0 0.00 0.00 0.00 91 1015.1
20260508051652 38 334 0.0 0.0 0.00 0.00 0.00 91 1015.1
20260508051148 38 334 0.0 0.0 0.00 0.00 0.00 90 1014.9
20260508050644 38 334 0.0 0.0 0.00 0.00 0.00 90 1015.2
20260508050142 39 334 0.0 0.0 0.00 0.00 0.00 90 1015.2
20260508045637 38 334 0.0 0.0 0.00 0.00 0.00 90 1015.0
20260508045135 38 334 0.0 0.0 0.00 0.00 0.00 90 1014.9
20260508044632 39 334 0.0 0.0 0.00 0.00 0.00 90 1014.8
20260508044128 39 334 0.0 0.0 0.00 0.00 0.00 90 1015.0
20260508043625 39 334 0.0 0.0 0.00 0.00 0.00 89 1015.0
20260508043123 39 334 0.0 0.0 0.00 0.00 0.00 89 1014.9
20260508042619 39 334 0.0 0.0 0.00 0.00 0.00 89 1015.1
20260508042117 40 334 0.0 0.0 0.00 0.00 0.00 89 1014.9
20260508041612 39 334 0.0 0.0 0.00 0.00 0.00 89 1014.9
20260508041109 40 334 0.0 0.0 0.00 0.00 0.00 89 1014.8
20260508040606 40 334 0.0 0.0 0.00 0.00 0.00 88 1014.7
20260508040104 40 334 0.0 0.0 0.00 0.00 0.00 88 1014.6
20260508035600 40 334 0.0 0.0 0.00 0.00 0.00 87 1014.6
20260508035058 40 334 0.0 0.0 0.00 0.00 0.00 87 1014.5
20260508034554 41 334 0.0 0.0 0.00 0.00 0.00 87 1014.8
20260508034052 41 334 0.0 0.0 0.00 0.00 0.00 87 1014.6
20260508033549 41 334 0.0 0.0 0.00 0.00 0.00 86 1014.6
20260508033048 41 334 0.0 0.0 0.00 0.00 0.00 86 1014.5
20260508032543 41 334 0.0 0.0 0.00 0.00 0.00 85 1014.5
20260508032041 41 334 0.0 0.0 0.00 0.00 0.00 85 1014.5
20260508031538 42 334 0.0 0.0 0.00 0.00 0.00 85 1014.6
20260508031034 42 334 0.0 0.0 0.00 0.00 0.00 84 1014.7
20260508030531 42 334 0.0 0.0 0.00 0.00 0.00 84 1014.9
20260508030029 42 334 0.0 0.0 0.00 0.00 0.00 83 1014.7
20260508025524 42 334 0.0 0.0 0.00 0.00 0.00 83 1014.4
20260508025022 42 334 0.0 0.0 0.00 0.00 0.00 83 1014.4
20260508024518 43 334 0.0 0.0 0.00 0.00 0.00 82 1014.6
20260508024015 43 334 0.0 0.0 0.00 0.00 0.00 80 1014.4
20260508023511 43 334 0.0 0.0 0.00 0.00 0.00 79 1014.6
20260508023009 44 334 0.0 0.0 0.00 0.00 0.00 79 1014.2
20260508022504 44 334 0.0 0.0 0.00 0.00 0.00 78 1014.5
20260508022001 44 334 0.0 0.0 0.00 0.00 0.00 78 1014.4
20260508021457 44 334 0.0 0.0 0.00 0.00 0.00 78 1014.3
20260508020953 44 334 0.0 0.0 0.00 0.00 0.00 76 1014.1
20260508020451 45 334 0.0 0.0 0.00 0.00 0.00 75 1014.1
20260508015948 45 334 0.0 0.0 0.00 0.00 0.00 74 1014.0
20260508015446 46 334 0.0 0.0 0.00 0.00 0.00 75 1014.0
20260508014942 46 334 0.0 0.0 0.00 0.00 0.00 73 1013.9
20260508014439 46 334 0.0 0.0 0.00 0.00 0.00 72 1013.9
20260508013935 47 334 0.0 0.0 0.00 0.00 0.00 72 1013.8
20260508013431 47 334 0.0 0.0 0.00 0.00 0.00 71 1013.7
20260508012929 48 334 0.0 0.0 0.00 0.00 0.00 71 1013.7
20260508012425 48 334 0.0 0.0 0.00 0.00 0.00 68 1013.8
20260508011923 49 333 0.0 0.0 0.00 0.00 0.00 66 1013.7
20260508011421 49 335 0.9 1.7 0.00 0.00 0.00 64 1013.6
20260508010918 50 334 0.9 1.7 0.00 0.00 0.00 63 1013.4
20260508010415 51 325 0.9 1.7 0.00 0.00 0.00 61 1013.4
20260508005912 51 328 0.9 0.9 0.00 0.00 0.00 59 1013.3
20260508005409 52 263 0.9 0.9 0.00 0.00 0.00 55 1013.3
20260508004905 53 245 0.0 0.0 0.00 0.00 0.00 55 1013.3
20260508004401 54 246 0.9 0.9 0.00 0.00 0.00 49 1013.2
20260508003858 54 250 0.0 1.7 0.00 0.00 0.00 48 1013.1
20260508003355 55 254 0.0 0.0 0.00 0.00 0.00 48 1013.1
20260508002852 55 349 0.0 1.7 0.00 0.00 0.00 47 1013.1
20260508002349 56 335 0.0 3.5 0.00 0.00 0.00 48 1012.8
20260508001845 56 275 1.7 2.6 0.00 0.00 0.00 46 1013.0
20260508001341 56 355 0.9 1.7 0.00 0.00 0.00 44 1012.8
20260508000838 56 265 0.0 0.9 0.00 0.00 0.00 44 1012.8
20260508000335 56 272 3.5 3.5 0.00 0.00 0.00 42 1012.7
20260507235831 57 103 0.0 0.9 0.00 0.00 0.00 42 1012.4
20260507235328 57 199 0.0 0.9 0.00 0.00 0.00 40 1012.4
20260507234825 58 164 2.6 2.6 0.00 0.00 0.00 39 1012.3
20260507234322 58 113 0.0 1.7 0.00 0.00 0.00 41 1012.5
20260507233818 58 21 0.0 3.5 0.00 0.00 0.00 38 1012.3
20260507233316 58 193 1.7 2.6 0.00 0.00 0.00 38 1012.3
20260507232814 59 138 2.6 3.5 0.00 0.00 0.00 36 1012.1
20260507232310 59 279 3.5 6.1 0.00 0.00 0.00 35 1012.1
20260507231807 59 18 2.6 2.6 0.00 0.00 0.00 37 1012.2
20260507231304 59 26 0.9 1.7 0.00 0.00 0.00 36 1012.0
20260507230800 59 241 0.0 2.6 0.00 0.00 0.00 35 1011.9
20260507230258 60 110 0.9 3.5 0.00 0.00 0.00 36 1011.9
20260507225757 60 2 0.9 6.1 0.00 0.00 0.00 37 1011.9
20260507225254 60 95 0.0 3.5 0.00 0.00 0.00 35 1011.8
20260507224750 60 99 0.9 3.5 0.00 0.00 0.00 37 1011.8
20260507224247 60 81 0.9 1.7 0.00 0.00 0.00 36 1011.7
20260507223743 61 293 3.5 6.1 0.00 0.00 0.00 35 1011.7
20260507223239 62 250 2.6 3.5 0.00 0.00 0.00 34 1011.6
20260507222737 62 200 0.9 2.6 0.00 0.00 0.00 36 1011.6
20260507222233 62 228 2.6 3.5 0.00 0.00 0.00 34 1011.7
20260507221730 63 38 0.9 2.6 0.00 0.00 0.00 33 1011.5
20260507221226 63 302 0.9 3.5 0.00 0.00 0.00 36 1011.8
20260507220723 63 138 3.5 6.1 0.00 0.00 0.00 33 1011.4
20260507220221 63 220 1.7 3.5 0.00 0.00 0.00 33 1011.8
20260507215716 63 252 1.7 7.0 0.00 0.00 0.00 35 1011.4
20260507215214 64 213 2.6 6.1 0.00 0.00 0.00 34 1011.1
20260507214712 64 215 2.6 3.5 0.00 0.00 0.00 33 1011.1
20260507214208 64 164 4.3 9.6 0.00 0.00 0.00 34 1011.1
20260507213704 63 42 4.3 6.1 0.00 0.00 0.00 34 1011.1
20260507213201 64 281 1.7 2.6 0.00 0.00 0.00 34 1011.2
20260507212657 64 73 0.9 3.5 0.00 0.00 0.00 38 1011.2
20260507212154 63 53 0.9 1.7 0.00 0.00 0.00 38 1010.9
20260507211651 63 325 3.5 6.1 0.00 0.00 0.00 39 1010.7
20260507211146 65 215 1.7 6.1 0.00 0.00 0.00 34 1010.8
20260507210644 65 12 1.7 7.0 0.00 0.00 0.00 34 1010.7
20260507210140 64 312 3.5 5.2 0.00 0.00 0.00 35 1010.9
20260507205637 64 58 0.9 3.5 0.00 0.00 0.00 37 1010.8
20260507205134 65 284 1.7 1.7 0.00 0.00 0.00 35 1010.8
20260507204630 64 310 0.9 6.1 0.00 0.00 0.00 40 1010.6
20260507204128 64 144 0.9 5.2 0.00 0.00 0.00 36 1010.5
20260507203626 63 169 3.5 5.2 0.00 0.00 0.00 36 1010.6
20260507203123 62 240 1.7 1.7 0.00 0.00 0.00 37 1010.8
20260507202618 62 280 3.5 5.2 0.00 0.00 0.00 39 1010.6
20260507202115 62 319 3.5 5.2 0.00 0.00 0.00 36 1010.6
20260507201610 62 353 0.0 2.6 0.00 0.00 0.00 39 1010.8
20260507201107 63 98 3.5 6.1 0.00 0.00 0.00 42 1010.5
20260507200602 63 154 1.7 3.5 0.00 0.00 0.00 41 1010.6
20260507200059 63 34 0.9 3.5 0.00 0.00 0.00 36 1010.7
20260507195557 64 77 0.0 2.6 0.00 0.00 0.00 37 1010.7
20260507195054 63 274 1.7 3.5 0.00 0.00 0.00 38 1010.7
20260507194549 63 120 3.5 6.1 0.00 0.00 0.00 39 1010.7
20260507194045 63 275 3.5 9.6 0.00 0.00 0.00 39 1010.8
20260507193543 62 12 0.0 2.6 0.00 0.00 0.00 40 1011.0
20260507193040 62 78 1.7 3.5 0.00 0.00 0.00 38 1011.3
20260507192536 63 256 1.7 7.0 0.00 0.00 0.00 36 1011.4
20260507192033 63 130 3.5 7.8 0.00 0.00 0.00 39 1011.6
20260507191528 63 350 5.2 6.1 0.00 0.00 0.00 40 1011.5
20260507191026 61 166 1.7 3.5 0.00 0.00 0.00 39 1011.8
20260507190523 61 287 0.9 5.2 0.00 0.00 0.00 41 1011.6
20260507190022 62 58 3.5 7.0 0.00 0.00 0.00 38 1011.6
20260507185520 61 116 0.9 3.5 0.00 0.00 0.00 39 1011.7
20260507185016 62 77 3.5 7.0 0.00 0.00 0.00 39 1011.7
20260507184514 62 311 2.6 8.7 0.00 0.00 0.00 40 1011.7
20260507184012 64 232 1.7 3.5 0.00 0.00 0.00 36 1011.7
20260507183507 63 127 0.0 2.6 0.00 0.00 0.00 41 1011.5
20260507183005 61 24 2.6 7.8 0.00 0.00 0.00 41 1011.6
20260507182500 62 38 1.7 5.2 0.00 0.00 0.00 41 1011.8
20260507181957 63 26 3.5 6.1 0.00 0.00 0.00 39 1011.5
20260507181453 62 199 2.6 5.2 0.00 0.00 0.00 43 1011.6
20260507180950 62 59 2.6 3.5 0.00 0.00 0.00 41 1011.7
20260507180447 62 34 0.9 5.2 0.00 0.00 0.00 41 1011.6
20260507175943 62 0 2.6 2.6 0.00 0.00 0.00 38 1011.8
20260507175440 62 209 2.6 3.5 0.00 0.00 0.00 40 1011.8
20260507174937 62 295 0.9 2.6 0.00 0.00 0.00 44 1011.8
20260507174434 62 140 0.0 3.5 0.00 0.00 0.00 41 1011.9
20260507173932 61 67 2.6 6.1 0.00 0.00 0.00 42 1011.8
20260507173429 61 121 1.7 1.7 0.00 0.00 0.00 45 1011.9
20260507172925 61 154 1.7 5.2 0.00 0.00 0.00 45 1012.0
20260507172422 62 108 0.9 2.6 0.00 0.00 0.00 43 1011.9
20260507171918 62 273 0.9 3.5 0.00 0.00 0.00 45 1012.2
20260507171415 63 273 3.5 5.2 0.00 0.00 0.00 43 1012.3
20260507170912 62 90 0.9 1.7 0.00 0.00 0.00 45 1012.3
20260507170408 61 25 1.7 3.5 0.00 0.00 0.00 44 1012.4
20260507165904 62 150 1.7 5.2 0.00 0.00 0.00 44 1012.5
20260507165400 62 200 2.6 3.5 0.00 0.00 0.00 47 1012.6
20260507164856 61 226 1.7 3.5 0.00 0.00 0.00 46 1012.6
20260507164354 61 229 3.5 6.1 0.00 0.00 0.00 45 1012.5
20260507163851 61 181 1.7 6.1 0.00 0.00 0.00 48 1012.8
20260507163348 61 331 2.6 3.5 0.00 0.00 0.00 45 1012.8
20260507162845 61 286 0.9 2.6 0.00 0.00 0.00 47 1012.5
20260507162340 59 232 4.3 7.0 0.00 0.00 0.00 47 1012.6
20260507161837 59 272 2.6 6.1 0.00 0.00 0.00 48 1012.8
20260507161334 60 207 1.7 3.5 0.00 0.00 0.00 46 1012.7
20260507160831 59 224 2.6 3.5 0.00 0.00 0.00 50 1012.6
20260507160326 57 309 0.0 3.5 0.00 0.00 0.00 51 1012.8
20260507155823 57 95 1.7 2.6 0.00 0.00 0.00 54 1012.9
20260507155319 58 300 3.5 6.1 0.00 0.00 0.00 49 1012.8
20260507154815 59 302 0.9 5.2 0.00 0.00 0.00 47 1012.9
20260507154313 59 59 1.7 1.7 0.00 0.00 0.00 50 1012.9
20260507153809 58 217 0.9 1.7 0.00 0.00 0.00 48 1012.8
20260507153306 58 57 1.7 2.6 0.00 0.00 0.00 53 1013.0
20260507152802 59 34 4.3 5.2 0.00 0.00 0.00 50 1013.0
20260507152259 59 25 2.6 2.6 0.00 0.00 0.00 52 1012.8
20260507151754 59 207 0.9 3.5 0.00 0.00 0.00 49 1013.1
20260507151251 58 309 0.0 2.6 0.00 0.00 0.00 49 1013.1
20260507150748 57 104 0.9 6.1 0.00 0.00 0.00 49 1013.2
20260507150245 57 181 3.5 7.8 0.00 0.00 0.00 52 1013.1
20260507145741 58 153 2.6 2.6 0.00 0.00 0.00 57 1013.3
20260507145238 59 159 0.9 1.7 0.00 0.00 0.00 55 1013.2
20260507144735 58 337 1.7 7.0 0.00 0.00 0.00 53 1013.3
20260507144232 58 86 2.6 5.2 0.00 0.00 0.00 55 1013.4
20260507143729 58 187 0.0 2.6 0.00 0.00 0.00 52 1013.7
20260507143226 59 190 2.6 3.5 0.00 0.00 0.00 56 1013.7
20260507142722 59 201 2.6 5.2 0.00 0.00 0.00 55 1013.7
20260507142219 57 92 1.7 3.5 0.00 0.00 0.00 54 1013.8
20260507141715 57 93 0.9 2.6 0.00 0.00 0.00 55 1013.7
20260507141213 56 312 2.6 6.1 0.00 0.00 0.00 56 1013.9
20260507140708 56 261 6.1 9.6 0.00 0.00 0.00 58 1013.9
20260507140206 56 136 3.5 5.2 0.00 0.00 0.00 55 1014.0
20260507135703 56 185 3.5 5.2 0.00 0.00 0.00 54 1014.1
20260507135200 57 102 1.7 1.7 0.00 0.00 0.00 51 1014.2
20260507134657 57 189 1.7 2.6 0.00 0.00 0.00 49 1014.3
20260507134152 58 261 0.9 1.7 0.00 0.00 0.00 50 1014.2
20260507133648 57 173 0.9 2.6 0.00 0.00 0.00 57 1014.3
20260507133146 56 270 0.0 1.7 0.00 0.00 0.00 65 1014.3
20260507132643 55 154 0.0 2.6 0.00 0.00 0.00 70 1014.2
20260507132139 54 184 1.7 2.6 0.00 0.00 0.00 71 1014.4
20260507131636 54 182 2.6 2.6 0.00 0.00 0.00 74 1014.4
20260507131134 53 132 0.9 1.7 0.00 0.00 0.00 74 1014.6
20260507130630 53 194 0.9 1.7 0.00 0.00 0.00 78 1014.4
20260507130128 52 160 0.9 2.6 0.00 0.00 0.00 78 1014.4
20260507125627 52 165 0.9 1.7 0.00 0.00 0.00 82 1014.4
20260507125124 51 112 0.0 1.7 0.00 0.00 0.00 88 1014.6
20260507124620 50 202 0.0 0.9 0.00 0.00 0.00 93 1014.6
20260507124118 48 159 0.0 0.9 0.00 0.00 0.00 93 1014.2
20260507123616 46 140 0.0 0.9 0.00 0.00 0.00 93 1014.3
20260507123113 46 133 0.9 1.7 0.00 0.00 0.00 93 1014.5
20260507122608 46 147 1.7 1.7 0.00 0.00 0.00 93 1014.4
20260507122104 45 94 0.9 0.9 0.00 0.00 0.00 93 1014.3
20260507121600 44 228 0.0 0.9 0.00 0.00 0.00 93 1014.4
20260507121056 44 246 0.0 0.0 0.00 0.00 0.00 93 1014.4
20260507120552 44 247 0.9 0.9 0.00 0.00 0.00 93 1014.4
20260507120049 43 114 0.0 0.9 0.00 0.00 0.00 94 1014.2
20260507115545 43 130 0.0 0.9 0.00 0.00 0.00 93 1014.5
20260507115041 43 135 0.0 0.9 0.00 0.00 0.00 93 1014.5
20260507114537 42 134 0.0 0.0 0.00 0.00 0.00 93 1014.5
20260507114035 42 347 0.9 0.9 0.00 0.00 0.00 94 1014.3
20260507113532 42 347 0.0 0.0 0.00 0.00 0.00 93 1014.3
20260507113029 42 353 0.0 0.9 0.00 0.00 0.00 93 1014.3
20260507112526 42 12 0.0 0.0 0.00 0.00 0.00 93 1014.5
20260507112023 42 8 0.0 0.0 0.00 0.00 0.00 93 1014.3
20260507111520 42 10 0.0 0.9 0.00 0.00 0.00 93 1014.2
20260507111016 42 11 0.9 0.9 0.00 0.00 0.00 93 1014.1
20260507110513 42 11 0.0 0.0 0.00 0.00 0.00 93 1014.2
20260507110010 42 11 0.0 0.0 0.00 0.00 0.00 93 1014.1
20260507105507 42 11 0.0 0.9 0.00 0.00 0.00 93 1014.0
20260507105003 42 12 0.0 0.0 0.00 0.00 0.00 93 1013.8
20260507104500 42 8 0.0 0.0 0.00 0.00 0.00 93 1013.8
20260507103956 42 8 0.9 0.9 0.00 0.00 0.00 93 1013.7
20260507103453 42 9 0.0 0.0 0.00 0.00 0.00 93 1013.7
20260507102949 42 6 0.0 0.9 0.00 0.00 0.00 93 1013.7
20260507102446 42 17 0.0 0.9 0.00 0.00 0.00 93 1013.6
20260507101942 42 19 0.0 0.9 0.00 0.00 0.00 93 1013.6
20260507101437 42 21 0.0 0.9 0.00 0.00 0.00 93 1013.7
20260507100934 42 21 0.0 1.7 0.00 0.00 0.00 93 1013.3
20260507100432 42 344 0.9 0.9 0.00 0.00 0.00 92 1013.7
20260507095930 42 344 0.0 0.9 0.00 0.00 0.00 92 1013.6
20260507095427 42 344 0.0 0.9 0.00 0.00 0.00 92 1013.4
20260507094924 42 343 0.0 0.0 0.00 0.00 0.00 92 1013.6
20260507094420 42 343 0.0 0.0 0.00 0.00 0.00 92 1013.4
20260507093917 42 343 0.0 0.0 0.00 0.00 0.00 92 1013.4
20260507093415 42 343 0.0 0.0 0.00 0.00 0.00 92 1013.4
20260507092913 43 343 0.0 0.9 0.00 0.00 0.00 92 1013.3
20260507092409 43 343 0.0 0.0 0.00 0.00 0.00 91 1013.6
20260507091906 43 343 0.0 0.0 0.00 0.00 0.00 91 1013.4
20260507091402 43 343 0.0 0.0 0.00 0.00 0.00 91 1013.1
20260507090858 43 343 0.0 0.0 0.00 0.00 0.00 91 1013.3
20260507090354 43 343 0.0 0.0 0.00 0.00 0.00 91 1013.1
20260507085851 44 343 0.0 0.9 0.00 0.00 0.00 91 1013.1
20260507085348 44 344 0.9 0.9 0.00 0.00 0.00 91 1013.3
20260507084845 44 344 0.9 1.7 0.00 0.00 0.00 91 1013.3
20260507084342 44 0 0.9 1.7 0.00 0.00 0.00 90 1013.6
20260507083839 45 1 0.0 0.0 0.00 0.00 0.00 90 1013.4
20260507083335 45 0 0.0 0.9 0.00 0.00 0.00 90 1013.4
20260507082832 45 0 0.9 0.9 0.00 0.00 0.00 90 1013.4
20260507082327 45 1 0.0 0.9 0.00 0.00 0.00 90 1013.6
20260507081825 46 321 0.0 0.9 0.00 0.00 0.00 89 1013.6
20260507081321 46 321 0.0 0.9 0.00 0.00 0.00 89 1013.6
20260507080817 46 321 0.0 0.0 0.00 0.00 0.00 89 1013.6
20260507080314 46 321 0.0 0.9 0.00 0.00 0.00 89 1013.6
20260507075809 47 321 0.0 0.9 0.00 0.00 0.00 88 1013.4
20260507075307 46 321 0.9 1.7 0.00 0.00 0.00 88 1013.3
20260507074802 46 14 0.0 0.9 0.00 0.00 0.00 88 1013.6
20260507074300 47 15 0.0 0.9 0.00 0.00 0.00 87 1013.2
20260507073757 47 355 0.9 0.9 0.00 0.00 0.00 87 1013.4
20260507073253 47 355 0.0 0.9 0.00 0.00 0.00 86 1013.6